SCP
1 1 1 1 1 1 0 0 0 0 0 0 0 0 0 0 0 0 0 0 0 0 0 0 0 0 0 1 1 1 1 0 0 0 0 0 1 1
1 1 1 1 1 1 0 0 0 0 0 0 0 0 0 0 0 0 0 0 0 0 0 0 0 0 0 1 1 1 0 0 0 0 0 0 0 1
0 0 0 0 0 0 0 0 0 0 0 0 0 0 0 0 0 0 0 0 0 0 0 0 0 0 0 0 1 0 0 0 0 0 0 0 0 0
0 0 0 0 0 0 0 0 0 0 0 0 0 0 0 0 0 0 0 0 0 0 0 0 0 0 0 0 0 0 0 0 0 0 0 0 0 0
0 0 0 0 0 0 0 0 0 0 0 0 0 0 0 0 0 0 0 0 0 0 0 0 0 0 0 0 0 0 0 0 0 0 0 0 0 0
0 0 0 0 0 0 0 0 0 0 0 0 0 0 0 0 0 0 0 0 0 0 0 0 0 0 0 0 0 0 0 0 0 0 0 0 0 0
0 0 0 0 0 0 0 0 0 0 0 0 0 0 0 0 0 0 0 0 0 0 0 0 0 0 0 0 0 0 0 0 0 0 0 0 0 0
0 0 0 0 0 0 0 0 0 0 0 0 0 0 0 0 0 0 0 0 0 0 0 0 0 0 0 0 0 0 0 0 0 0 0 0 0 0
0 0 0 0 0 0 0 0 0 0 0 0 0 0 0 0 0 0 0 0 0 0 0 0 0 0 0 0 0 0 0 0 0 0 0 0 0 0
0 0 0 0 0 0 0 0 0 0 0 0 0 0 0 0 0 0 0 0 0 0 0 0 0 0 0 0 0 0 0 0 0 0 0 0 0 0
0 0 0 0 0 0 0 0 0 0 0 0 0 0 0 0 0 0 0 0 0 0 0 0 0 0 0 0 0 0 0 0 0 0 0 0 0 0
0 0 0 0 0 0 0 0 0 0 0 0 0 0 0 0 0 0 0 0 0 0 0 0 0 0 0 0 0 0 0 0 0 0 0 0 0 0
0 0 0 0 0 0 0 0 0 0 0 0 0 0 0 0 0 0 0 0 0 0 0 0 0 0 0 0 0 0 0 0 0 0 0 0 0 0
0 0 0 0 0 0 0 0 0 0 0 0 0 0 0 0 0 0 0 0 0 0 0 0 0 0 0 0 0 0 0 0 0 0 0 0 0 0
0 0 0 0 0 0 0 0 0 0 0 0 0 0 0 0 0 0 0 0 0 0 0 0 0 0 0 0 0 0 0 0 0 0 0 0 0 0
0 0 0 0 0 0 0 0 0 0 0 0 0 0 0 0 0 0 0 0 0 0 0 0 0 0 0 0 0 0 0 0 0 0 0 0 0 0
0 0 0 0 0 0 0 0 0 0 0 0 0 0 0 0 0 0 0 0 0 0 0 0 0 0 0 0 0 0 0 0 0 0 0 0 0 0
0 0 0 0 0 0 0 0 0 0 0 0 0 0 0 0 0 0 0 0 0 0 0 0 0 0 0 0 0 0 0 0 0 0 0 0 0 0
0 0 0 0 0 0 0 0 0 0 0 0 0 0 0 0 0 0 0 0 0 0 0 0 0 0 0 0 0 0 0 0 0 0 0 0 0 0
0 0 0 0 0 0 0 0 0 0 0 0 0 0 0 0 0 0 0 0 0 0 0 0 0 0 0 0 0 0 0 0 0 0 0 0 0 0
0 0 0 0 0 0 0 0 0 0 0 0 0 0 0 0 0 0 0 0 0 0 0 0 0 0 0 0 0 0 0 0 0 0 0 0 0 0
0 0 0 0 0 0 0 0 0 0 0 0 0 0 0 0 0 0 0 0 0 0 0 0 0 0 0 0 0 0 0 0 0 0 0 0 0 0
0 0 0 0 0 0 0 0 0 0 0 0 0 0 0 0 0 0 0 0 0 0 0 0 0 0 0 0 0 0 0 0 0 0 0 0 0 0
Wind_Speed
2 2 1 1 1 1 1 2 2 1 1 1 1 1 2 2 3 2 2 4 5 5 5 5 5 5 5 5 5 4 3 3 3 3 3 2 2 3
2 2 2 1 1 0 1 1 1 2 1 1 1 1 2 2 2 2 2 4 4 4 4 4 4 4 4 4 4 4 3 3 2 2 2 2 2 2
3 2 2 2 1 1 0 1 1 1 2 1 1 1 2 2 2 1 1 1 1 3 3 3 3 3 3 4 4 4 4 3 2 2 2 2 2 2
3 3 3 2 2 1 0 0 1 2 2 2 1 1 1 2 2 2 1 1 1 1 2 2 3 3 3 3 3 3 3 2 2 2 1 1 1 1
3 3 3 2 2 1 1 0 1 1 2 2 1 1 1 1 1 1 1 1 1 1 1 1 2 2 2 2 1 1 2 2 2 2 1 1 0 1
3 3 3 2 2 1 1 1 0 1 1 2 1 0 1 1 0 1 1 2 2 2 2 2 2 3 2 2 1 1 1 1 1 1 1 1 0 1
4 4 3 3 3 2 1 1 0 1 1 2 1 0 0 0 0 0 1 1 1 1 1 1 1 1 1 2 1 1 1 0 0 1 1 1 1 1
4 4 4 4 4 4 3 2 0 1 2 2 1 2 2 1 1 1 1 1 1 1 1 1 1 1 1 1 1 2 2 2 2 2 2 2 2 3
3 3 3 3 4 3 3 4 3 2 1 2 2 2 2 2 2 1 1 0 1 1 1 1 1 1 2 1 2 3 3 3 3 3 4 4 4 5
3 2 2 3 3 3 2 3 3 2 1 0 1 2 2 2 3 2 2 1 1 1 1 1 1 1 2 2 3 3 3 4 4 5 5 5 6 6
3 3 2 3 5 4 2 2 3 3 3 2 1 0 1 2 3 3 2 1 0 1 1 1 1 1 2 2 2 3 4 5 6 6 6 7 7 6
3 3 3 3 4 3 1 1 2 2 3 3 3 3 2 1 2 3 2 2 1 1 1 1 1 1 2 2 2 2 3 4 6 7 7 8 7 4
3 3 3 5 4 3 1 1 1 1 1 1 2 2 2 1 1 1 2 2 2 2 2 2 1 1 1 2 3 3 2 3 3 3 5 6 7 6
2 3 3 5 4 3 1 1 1 1 0 1 1 2 2 2 2 1 1 3 4 4 3 3 2 2 2 2 3 3 3 3 3 3 3 3 5 7
2 3 5 5 4 2 2 1 0 1 1 1 1 1 1 2 2 2 1 1 2 4 4 5 4 3 3 3 3 3 3 4 3 3 3 3 3 3
2 3 4 3 2 1 2 1 1 0 1 0 1 1 1 1 1 1 1 2 2 2 1 3 5 5 3 4 4 4 4 4 3 3 4 4 4 4
3 2 2 2 3 2 1 1 1 0 0 1 1 1 1 1 2 1 1 1 1 2 3 2 2 3 5 4 3 4 4 4 4 3 3 4 5 5
1 1 2 2 2 3 2 2 1 1 1 1 1 2 2 2 2 1 1 1 2 3 3 3 2 1 2 3 6 5 4 4 4 3 3 4 6 5
1 2 3 3 3 3 2 2 2 2 2 2 2 2 2 2 2 2 2 2 3 3 3 3 2 2 3 5 3 5 4 4 4 4 4 4 6 6
2 3 4 4 3 3 3 3 3 3 2 2 3 3 3 3 3 3 3 4 4 4 4 3 3 3 4 4 4 3 5 5 4 5 5 5 6 7
3 4 4 4 4 4 4 3 4 4 4 3 3 4 4 3 4 4 4 5 4 4 5 5 4 4 4 3 4 5 4 6 6 5 5 5 6 5
5 5 5 5 4 4 4 4 4 4 5 4 5 4 4 4 5 6 5 4 4 4 5 5 4 3 3 4 6 6 6 5 5 9 10 8 5 6
6 5 5 5 5 5 5 5 6 5 5 5 5 5 5 5 5 5 5 5 5 5 5 5 4 3 4 4 5 6 8 7 5 5 6 8 13 15
Wind_Direction
353 344 324 310 288 234 204 194 191 237 288 274 286 320 325 335 346 359 15 22 28 33 32 36 40 48 54 62 70 71 76 97 116 127 141 154 166 167
351 4 356 335 328 275 191 200 201 204 231 254 269 286 301 319 352 356 358 10 19 23 27 34 40 40 43 54 69 71 74 89 114 125 141 154 149 166
0 9 355 346 350 348 195 185 187 187 208 269 278 277 278 308 327 330 331 344 3 16 17 30 39 38 43 54 63 65 67 72 86 120 140 158 174 189
352 357 351 352 358 346 324 227 205 195 186 208 264 277 292 295 303 317 335 343 320 3 12 28 38 40 46 53 63 68 67 65 66 80 108 145 176 208
347 350 339 345 346 345 335 282 234 192 181 171 213 275 295 302 325 338 356 354 336 356 34 42 45 39 38 49 57 62 67 68 66 71 72 95 163 198
352 347 337 334 328 338 337 313 200 134 137 146 161 228 280 286 280 338 357 13 355 5 26 29 43 40 36 34 38 46 63 105 118 109 99 98 165 187
357 350 342 347 354 357 342 323 122 138 141 147 157 196 247 231 212 304 27 355 350 4 360 3 10 8 13 21 23 13 334 280 242 204 185 193 197 206
351 345 347 357 1 6 16 19 98 169 169 167 186 201 229 219 183 159 119 29 342 7 0 346 9 334 318 292 289 289 285 272 257 253 245 241 243 250
342 341 352 2 5 6 11 22 30 44 153 175 187 209 207 196 176 160 142 161 266 324 354 337 354 317 302 285 272 270 269 264 256 255 254 254 255 257
336 328 331 339 350 354 5 25 23 15 14 149 206 228 219 201 184 170 149 126 291 270 228 288 324 307 314 302 281 267 268 267 262 259 258 257 258 261
329 333 327 326 331 344 16 24 17 9 25 49 60 15 210 205 179 152 151 133 353 316 185 223 292 312 301 293 290 272 268 270 270 265 259 255 256 261
331 331 331 327 326 333 8 40 14 349 5 13 25 26 41 76 170 182 179 168 195 269 195 197 260 308 305 285 288 290 279 270 267 264 258 255 254 254
329 331 326 326 324 322 309 235 250 283 340 1 3 4 12 34 64 168 192 194 202 241 208 187 224 232 259 290 293 285 285 285 286 273 261 256 250 234
300 310 311 321 331 333 329 257 242 229 97 24 16 1 358 352 342 328 225 221 230 240 224 197 222 218 235 266 280 287 289 279 275 282 289 283 264 244
281 296 310 325 337 343 352 355 40 132 109 53 356 333 321 309 316 329 330 263 249 242 230 217 218 221 225 247 268 278 292 293 281 280 288 287 284 272
321 325 329 339 351 343 343 355 354 189 164 235 292 298 307 324 335 334 326 329 327 313 264 223 220 213 228 241 252 271 274 280 292 290 291 289 278 263
322 334 351 354 353 350 349 334 314 235 205 235 254 286 301 301 295 282 266 266 276 296 308 309 242 225 233 244 260 266 274 278 277 285 287 291 287 278
308 311 311 311 307 308 312 314 294 267 252 249 259 264 280 288 293 292 256 256 268 277 282 292 302 289 257 236 219 257 275 278 287 285 273 280 289 289
223 267 274 278 276 277 277 271 272 272 260 257 262 264 261 267 272 280 277 270 273 276 275 276 272 269 290 299 274 211 241 280 291 291 277 265 278 289
236 257 266 268 266 266 265 258 260 265 253 248 252 254 254 257 264 268 270 269 275 280 282 274 256 248 252 278 290 283 231 247 271 282 289 284 277 278
263 257 257 259 260 260 259 254 252 254 252 247 249 249 248 247 255 260 261 262 261 267 277 281 277 257 246 250 268 271 262 231 230 255 280 290 294 294
266 262 260 255 253 254 251 247 248 249 248 246 249 249 246 244 251 257 258 260 260 261 268 277 283 264 236 250 271 283 287 288 261 244 244 246 273 284
255 255 256 255 251 248 247 246 246 249 245 244 247 247 245 245 248 251 253 256 261 266 270 277 278 260 258 258 269 279 284 291 295 293 280 256 245 255